TimeEST,TemperatureF,Dew PointF,Humidity,Sea Level PressureIn,VisibilityMPH,Wind Direction,Wind SpeedMPH,Gust SpeedMPH,PrecipitationIn,Events,Conditions,WindDirDegrees,DateUTC
12:15 AM,51.8,51.8,100,30.03,3.0,Calm,Calm,-,0.00,,Clear,0,2012-12-08 05:15:00
12:35 AM,51.8,51.8,100,30.04,3.0,Calm,Calm,-,0.00,,Clear,0,2012-12-08 05:35:00
12:55 AM,50.0,50.0,100,30.04,3.0,Calm,Calm,-,0.00,,Partly Cloudy,0,2012-12-08 05:55:00
1:15 AM,50.0,50.0,100,30.04,3.0,Calm,Calm,-,0.00,,Partly Cloudy,0,2012-12-08 06:15:00
1:35 AM,48.2,48.2,100,30.04,2.5,Calm,Calm,-,0.00,,Partly Cloudy,0,2012-12-08 06:35:00
1:55 AM,48.2,48.2,100,30.04,4.0,Calm,Calm,-,0.00,,Partly Cloudy,0,2012-12-08 06:55:00
2:15 AM,48.2,48.2,100,30.04,4.0,Calm,Calm,-,0.00,,Partly Cloudy,0,2012-12-08 07:15:00
2:35 AM,48.2,48.2,100,30.03,5.0,Calm,Calm,-,0.00,,Clear,0,2012-12-08 07:35:00
2:55 AM,48.2,48.2,100,30.03,5.0,Calm,Calm,-,0.00,,Clear,0,2012-12-08 07:55:00
3:15 AM,48.2,48.2,100,30.03,5.0,Calm,Calm,-,0.00,,Clear,0,2012-12-08 08:15:00
3:35 AM,48.2,48.2,100,30.03,4.0,Calm,Calm,-,0.00,,Clear,0,2012-12-08 08:35:00
3:55 AM,48.2,48.2,100,30.03,6.0,Calm,Calm,-,0.00,,Clear,0,2012-12-08 08:55:00
4:15 AM,48.2,48.2,100,30.04,4.0,Calm,Calm,-,0.00,,Clear,0,2012-12-08 09:15:00
4:35 AM,48.2,48.2,100,30.04,4.0,Calm,Calm,-,0.00,,Clear,0,2012-12-08 09:35:00
4:55 AM,48.2,48.2,100,30.05,3.0,Calm,Calm,-,0.00,,Clear,0,2012-12-08 09:55:00
5:15 AM,48.2,48.2,100,30.05,3.0,Calm,Calm,-,0.00,,Clear,0,2012-12-08 10:15:00
5:35 AM,48.2,48.2,100,30.05,4.0,Calm,Calm,-,0.00,,Clear,0,2012-12-08 10:35:00
7:50 AM,48.2,48.2,100,30.09,3.0,Calm,Calm,-,N/A,,Partly Cloudy,0,2012-12-08 12:50:00
8:50 AM,53.6,53.6,100,30.10,4.0,Calm,Calm,-,N/A,,Partly Cloudy,0,2012-12-08 13:50:00
10:50 AM,64.4,55.4,73,30.11,8.0,Calm,Calm,-,N/A,,Clear,0,2012-12-08 15:50:00
11:50 AM,66.2,55.4,68,30.09,10.0,Calm,Calm,-,N/A,,Partly Cloudy,0,2012-12-08 16:50:00
12:50 PM,64.4,53.6,68,30.06,10.0,NE,3.5,-,N/A,,Scattered Clouds,40,2012-12-08 17:50:00
1:50 PM,66.2,53.6,64,30.04,10.0,NE,3.5,-,N/A,,Scattered Clouds,50,2012-12-08 18:50:00
2:50 PM,66.2,53.6,64,30.04,10.0,NE,3.5,-,N/A,,Scattered Clouds,50,2012-12-08 19:50:00
3:50 PM,64.4,53.6,68,30.06,10.0,Calm,Calm,-,N/A,,Clear,0,2012-12-08 20:50:00
4:50 PM,62.6,53.6,72,30.06,10.0,Calm,Calm,-,N/A,,Clear,0,2012-12-08 21:50:00
5:50 PM,57.2,51.8,82,30.07,10.0,Calm,Calm,-,N/A,,Clear,0,2012-12-08 22:50:00
6:50 PM,57.2,51.8,82,30.09,10.0,Calm,Calm,-,N/A,,Clear,0,2012-12-08 23:50:00
7:50 PM,57.2,51.8,82,30.09,10.0,Calm,Calm,-,N/A,,Clear,0,2012-12-09 00:50:00
8:35 PM,57.2,57.2,100,30.10,7.0,Calm,Calm,-,0.00,,Clear,0,2012-12-09 01:35:00
9:15 PM,55.4,55.4,100,30.11,5.0,Calm,Calm,-,0.00,,Clear,0,2012-12-09 02:15:00
9:35 PM,55.4,55.4,100,30.11,4.0,Calm,Calm,-,0.00,,Clear,0,2012-12-09 02:35:00
9:55 PM,55.4,55.4,100,30.10,5.0,Calm,Calm,-,0.00,,Clear,0,2012-12-09 02:55:00
10:15 PM,55.4,55.4,100,30.10,5.0,Calm,Calm,-,0.00,,Clear,0,2012-12-09 03:15:00
10:55 PM,55.4,55.4,100,30.10,2.5,Calm,Calm,-,0.00,,Clear,0,2012-12-09 03:55:00
11:35 PM,53.6,53.6,100,30.09,5.0,Calm,Calm,-,0.00,,Clear,0,2012-12-09 04:35:00
11:55 PM,53.6,53.6,100,30.09,5.0,Calm,Calm,-,0.00,,Clear,0,2012-12-09 04:55:00